Year,Month,Day,Hour,Minute,Value (Times are PST for temperature in C)
2012,09,20,00,00,12.80
2012,09,20,00,01,12.80
2012,09,20,00,02,12.80
2012,09,20,00,03,12.80
2012,09,20,00,04,12.80
2012,09,20,00,05,12.80
2012,09,20,00,06,12.80
2012,09,20,00,07,12.80
2012,09,20,00,08,12.80
2012,09,20,00,09,12.80
2012,09,20,00,10,12.80
2012,09,20,00,11,12.70
2012,09,20,00,12,12.70
2012,09,20,00,13,12.70
2012,09,20,00,14,12.70
2012,09,20,00,15,12.70
2012,09,20,00,16,12.70
2012,09,20,00,17,12.70
2012,09,20,00,18,12.70
2012,09,20,00,19,12.70
2012,09,20,00,20,12.70
2012,09,20,00,21,12.60
2012,09,20,00,22,12.60
2012,09,20,00,23,12.60
2012,09,20,00,24,12.60
2012,09,20,00,25,12.60
2012,09,20,00,26,12.60
2012,09,20,00,27,12.60
2012,09,20,00,28,12.60
2012,09,20,00,29,12.60
2012,09,20,00,30,12.60
2012,09,20,00,31,12.60
2012,09,20,00,32,12.60
2012,09,20,00,33,12.60
2012,09,20,00,34,12.60
2012,09,20,00,35,12.60
2012,09,20,00,36,12.60
2012,09,20,00,37,12.60
2012,09,20,00,38,12.60
2012,09,20,00,39,12.60
2012,09,20,00,40,12.60
2012,09,20,00,41,12.60
2012,09,20,00,42,12.60
2012,09,20,00,43,12.60
2012,09,20,00,44,12.60
2012,09,20,00,45,12.60
2012,09,20,00,46,12.50
2012,09,20,00,47,12.50
2012,09,20,00,48,12.50
2012,09,20,00,49,12.50
2012,09,20,00,50,12.40
2012,09,20,00,51,12.40
2012,09,20,00,52,12.40
2012,09,20,00,53,12.30
2012,09,20,00,54,12.30
2012,09,20,00,55,12.30
2012,09,20,00,56,12.30
2012,09,20,00,57,12.30
2012,09,20,00,58,12.20
2012,09,20,00,59,12.20
2012,09,20,01,00,12.20
2012,09,20,01,01,12.20
2012,09,20,01,02,12.20
2012,09,20,01,03,12.20
2012,09,20,01,04,12.20
2012,09,20,01,05,12.20
2012,09,20,01,06,12.20
2012,09,20,01,07,12.10
2012,09,20,01,08,12.10
2012,09,20,01,09,12.10
2012,09,20,01,10,12.10
2012,09,20,01,11,12.10
2012,09,20,01,12,12.00
2012,09,20,01,13,12.00
2012,09,20,01,14,12.00
2012,09,20,01,15,11.90
2012,09,20,01,16,11.90
2012,09,20,01,17,11.90
2012,09,20,01,18,11.90
2012,09,20,01,19,11.90
2012,09,20,01,20,11.90
2012,09,20,01,21,11.90
2012,09,20,01,22,11.80
2012,09,20,01,23,11.80
2012,09,20,01,24,11.80
2012,09,20,01,25,11.80
2012,09,20,01,26,11.80
2012,09,20,01,27,11.70
2012,09,20,01,28,11.70
2012,09,20,01,29,11.70
2012,09,20,01,30,11.70
2012,09,20,01,31,11.70
2012,09,20,01,32,11.70
2012,09,20,01,33,11.60
2012,09,20,01,34,11.60
2012,09,20,01,35,11.60
2012,09,20,01,36,11.60
2012,09,20,01,37,11.50
2012,09,20,01,38,11.50
2012,09,20,01,39,11.40
2012,09,20,01,40,11.40
2012,09,20,01,41,11.40
2012,09,20,01,42,11.40
2012,09,20,01,43,11.40
2012,09,20,01,44,11.40
2012,09,20,01,45,11.40
2012,09,20,01,46,11.40
2012,09,20,01,47,11.40
2012,09,20,01,48,11.40
2012,09,20,01,49,11.40
2012,09,20,01,50,11.40
2012,09,20,01,51,11.40
2012,09,20,01,52,11.40
2012,09,20,01,53,11.40
2012,09,20,01,54,11.40
2012,09,20,01,55,11.40
2012,09,20,01,56,11.40
2012,09,20,01,57,11.40
2012,09,20,01,58,11.40
2012,09,20,01,59,11.40
2012,09,20,02,00,11.40
2012,09,20,02,01,11.40
2012,09,20,02,02,11.40
2012,09,20,02,03,11.40
2012,09,20,02,04,11.40
2012,09,20,02,05,11.30
2012,09,20,02,06,11.30
2012,09,20,02,07,11.30
2012,09,20,02,08,11.30
2012,09,20,02,09,11.30
2012,09,20,02,10,11.30
2012,09,20,02,11,11.30
2012,09,20,02,12,11.30
2012,09,20,02,13,11.30
2012,09,20,02,14,11.30
2012,09,20,02,15,11.30
2012,09,20,02,16,11.30
2012,09,20,02,17,11.30
2012,09,20,02,18,11.20
2012,09,20,02,19,11.20
2012,09,20,02,20,11.20
2012,09,20,02,21,11.20
2012,09,20,02,22,11.20
2012,09,20,02,23,11.10
2012,09,20,02,24,11.10
2012,09,20,02,25,11.10
2012,09,20,02,26,11.10
2012,09,20,02,27,11.00
2012,09,20,02,28,11.00
2012,09,20,02,29,11.00
2012,09,20,02,30,10.90
2012,09,20,02,31,10.90
2012,09,20,02,32,10.90
2012,09,20,02,33,10.80
2012,09,20,02,34,10.80
2012,09,20,02,35,10.80
2012,09,20,02,36,10.80
2012,09,20,02,37,10.80
2012,09,20,02,38,10.80
2012,09,20,02,39,10.80
2012,09,20,02,40,10.80
2012,09,20,02,41,10.90
2012,09,20,02,42,10.80
2012,09,20,02,43,10.80
2012,09,20,02,44,10.80
2012,09,20,02,45,10.80
2012,09,20,02,46,10.80
2012,09,20,02,47,10.80
2012,09,20,02,48,10.80
2012,09,20,02,49,10.80
2012,09,20,02,50,10.80
2012,09,20,02,51,10.80
2012,09,20,02,52,10.80
2012,09,20,02,53,10.80
2012,09,20,02,54,10.80
2012,09,20,02,55,10.70
2012,09,20,02,56,10.70
2012,09,20,02,57,10.70
2012,09,20,02,58,10.70
2012,09,20,02,59,10.70
2012,09,20,03,00,10.70
2012,09,20,03,01,10.70
2012,09,20,03,02,10.70
2012,09,20,03,03,10.70
2012,09,20,03,06,10.60
2012,09,20,03,07,10.60
2012,09,20,03,08,10.60
2012,09,20,03,09,10.60
2012,09,20,03,10,10.60
2012,09,20,03,11,10.60
2012,09,20,03,12,10.60
2012,09,20,03,13,10.60
2012,09,20,03,14,10.60
2012,09,20,03,15,10.60
2012,09,20,03,16,10.70
2012,09,20,03,17,10.70
2012,09,20,03,18,10.70
2012,09,20,03,19,10.70
2012,09,20,03,20,10.70
2012,09,20,03,21,10.70
2012,09,20,03,22,10.60
2012,09,20,03,23,10.60
2012,09,20,03,24,10.60
2012,09,20,03,25,10.60
2012,09,20,03,26,10.60
2012,09,20,03,27,10.60
2012,09,20,03,28,10.60
2012,09,20,03,29,10.60
2012,09,20,03,30,10.50
2012,09,20,03,31,10.50
2012,09,20,03,32,10.50
2012,09,20,03,33,10.50
2012,09,20,03,34,10.50
2012,09,20,03,35,10.50
2012,09,20,03,36,10.40
2012,09,20,03,37,10.40
2012,09,20,03,38,10.40
2012,09,20,03,39,10.40
2012,09,20,03,40,10.40
2012,09,20,03,41,10.40
2012,09,20,03,42,10.40
2012,09,20,03,43,10.40
2012,09,20,03,44,10.40
2012,09,20,03,45,10.40
2012,09,20,03,46,10.40
2012,09,20,03,47,10.40
2012,09,20,03,48,10.40
2012,09,20,03,49,10.40
2012,09,20,03,50,10.30
2012,09,20,03,51,10.30
2012,09,20,03,52,10.30
2012,09,20,03,53,10.30
2012,09,20,03,54,10.30
2012,09,20,03,55,10.20
2012,09,20,03,56,10.20
2012,09,20,03,57,10.20
2012,09,20,03,58,10.20
2012,09,20,03,59,10.20
2012,09,20,04,00,10.20
2012,09,20,04,01,10.20
2012,09,20,04,02,10.20
2012,09,20,04,03,10.20
2012,09,20,04,04,10.20
2012,09,20,04,05,10.20
2012,09,20,04,06,10.20
2012,09,20,04,07,10.10
2012,09,20,04,08,10.10
2012,09,20,04,09,10.10
2012,09,20,04,10,10.10
2012,09,20,04,11,10.10
2012,09,20,04,12,10.10
2012,09,20,04,13,10.10
2012,09,20,04,14,10.10
2012,09,20,04,15,10.10
2012,09,20,04,16,10.10
2012,09,20,04,17,10.10
2012,09,20,04,18,10.10
2012,09,20,04,19,10.10
2012,09,20,04,20,10.10
2012,09,20,04,21,10.10
2012,09,20,04,22,10.10
2012,09,20,04,23,10.10
2012,09,20,04,24,10.10
2012,09,20,04,25,10.10
2012,09,20,04,26,10.10
2012,09,20,04,27,10.10
2012,09,20,04,28,10.10
2012,09,20,04,29,10.00
2012,09,20,04,30,10.00
2012,09,20,04,31,10.00
2012,09,20,04,32,10.00
2012,09,20,04,33,9.90
2012,09,20,04,34,9.90
2012,09,20,04,35,9.90
2012,09,20,04,36,10.00
2012,09,20,04,37,9.90
2012,09,20,04,38,9.90
2012,09,20,04,39,9.90
2012,09,20,04,40,9.90
2012,09,20,04,41,9.90
2012,09,20,04,42,9.90
2012,09,20,04,43,9.90
2012,09,20,04,44,9.90
2012,09,20,04,45,9.90
2012,09,20,04,46,9.90
2012,09,20,04,47,9.90
2012,09,20,04,48,9.90
2012,09,20,04,49,9.90
2012,09,20,04,50,9.90
2012,09,20,04,51,9.90
2012,09,20,04,52,9.90
2012,09,20,04,53,9.80
2012,09,20,04,54,9.80
2012,09,20,04,55,9.80
2012,09,20,04,56,9.80
2012,09,20,04,57,9.80
2012,09,20,04,58,9.80
2012,09,20,04,59,9.80
2012,09,20,05,00,9.80
2012,09,20,05,01,9.80
2012,09,20,05,02,9.80
2012,09,20,05,03,9.80
2012,09,20,05,04,9.80
2012,09,20,05,05,9.80
2012,09,20,05,06,9.80
2012,09,20,05,07,9.80
2012,09,20,05,08,9.80
2012,09,20,05,09,9.80
2012,09,20,05,10,9.70
2012,09,20,05,11,9.70
2012,09,20,05,12,9.70
2012,09,20,05,13,9.70
2012,09,20,05,14,9.70
2012,09,20,05,15,9.60
2012,09,20,05,16,9.60
2012,09,20,05,17,9.50
2012,09,20,05,18,9.40
2012,09,20,05,19,9.40
2012,09,20,05,20,9.40
2012,09,20,05,21,9.40
2012,09,20,05,22,9.40
2012,09,20,05,23,9.40
2012,09,20,05,24,9.40
2012,09,20,05,25,9.40
2012,09,20,05,26,9.40
2012,09,20,05,27,9.30
2012,09,20,05,28,9.30
2012,09,20,05,29,9.30
2012,09,20,05,30,9.30
2012,09,20,05,31,9.30
2012,09,20,05,32,9.30
2012,09,20,05,33,9.30
2012,09,20,05,34,9.30
2012,09,20,05,35,9.30
2012,09,20,05,36,9.30
2012,09,20,05,37,9.30
2012,09,20,05,38,9.30
2012,09,20,05,39,9.30
2012,09,20,05,40,9.30
2012,09,20,05,41,9.30
2012,09,20,05,42,9.30
2012,09,20,05,43,9.30
2012,09,20,05,44,9.40
2012,09,20,05,45,9.40
2012,09,20,05,46,9.40
2012,09,20,05,47,9.40
2012,09,20,05,48,9.40
2012,09,20,05,49,9.40
2012,09,20,05,50,9.40
2012,09,20,05,51,9.40
2012,09,20,05,52,9.40
2012,09,20,05,53,9.40
2012,09,20,05,54,9.40
2012,09,20,05,55,9.40
2012,09,20,05,56,9.40
2012,09,20,05,57,9.40
2012,09,20,05,58,9.40
2012,09,20,05,59,9.40
2012,09,20,06,00,9.40
2012,09,20,06,01,9.50
2012,09,20,06,02,9.50
2012,09,20,06,03,9.50
2012,09,20,06,04,9.40
2012,09,20,06,05,9.40
2012,09,20,06,06,9.40
2012,09,20,06,07,9.40
2012,09,20,06,08,9.40
2012,09,20,06,09,9.40
2012,09,20,06,10,9.40
2012,09,20,06,11,9.40
2012,09,20,06,12,9.40
2012,09,20,06,13,9.40
2012,09,20,06,14,9.40
2012,09,20,06,15,9.40
2012,09,20,06,16,9.40
2012,09,20,06,17,9.40
2012,09,20,06,18,9.40
2012,09,20,06,19,9.40
2012,09,20,06,20,9.40
2012,09,20,06,21,9.40
2012,09,20,06,22,9.40
2012,09,20,06,23,9.40
2012,09,20,06,24,9.40
2012,09,20,06,25,9.40
2012,09,20,06,26,9.40
2012,09,20,06,27,9.40
2012,09,20,06,28,9.40
2012,09,20,06,29,9.40
2012,09,20,06,30,9.40
2012,09,20,06,31,9.40
2012,09,20,06,32,9.40
2012,09,20,06,33,9.30
2012,09,20,06,34,9.30
2012,09,20,06,35,9.30
2012,09,20,06,36,9.30
2012,09,20,06,37,9.30
2012,09,20,06,38,9.30
2012,09,20,06,39,9.30
2012,09,20,06,40,9.30
2012,09,20,06,41,9.20
2012,09,20,06,42,9.20
2012,09,20,06,43,9.20
2012,09,20,06,44,9.20
2012,09,20,06,45,9.20
2012,09,20,06,46,9.20
2012,09,20,06,47,9.10
2012,09,20,06,48,9.10
2012,09,20,06,49,9.10
2012,09,20,06,50,9.10
2012,09,20,06,51,9.10
2012,09,20,06,52,9.10
2012,09,20,06,53,9.10
2012,09,20,06,54,9.10
2012,09,20,06,55,9.00
2012,09,20,06,56,9.00
2012,09,20,06,57,9.00
2012,09,20,06,58,9.00
2012,09,20,06,59,9.00
2012,09,20,07,00,9.00
2012,09,20,07,01,9.00
2012,09,20,07,02,9.00
2012,09,20,07,03,9.00
2012,09,20,07,04,9.10
2012,09,20,07,05,9.10
2012,09,20,07,06,9.10
2012,09,20,07,07,9.10
2012,09,20,07,08,9.10
2012,09,20,07,09,9.10
2012,09,20,07,10,9.10
2012,09,20,07,11,9.10
2012,09,20,07,12,9.10
2012,09,20,07,13,9.10
2012,09,20,07,14,9.10
2012,09,20,07,15,9.20
2012,09,20,07,16,9.20
2012,09,20,07,17,9.20
2012,09,20,07,18,9.20
2012,09,20,07,19,9.20
2012,09,20,07,20,9.20
2012,09,20,07,21,9.30
2012,09,20,07,22,9.30
2012,09,20,07,23,9.30
2012,09,20,07,24,9.30
2012,09,20,07,25,9.30
2012,09,20,07,26,9.30
2012,09,20,07,27,9.30
2012,09,20,07,28,9.30
2012,09,20,07,29,9.30
2012,09,20,07,30,9.30
2012,09,20,07,31,9.30
2012,09,20,07,32,9.30
2012,09,20,07,33,9.30
2012,09,20,07,34,9.30
2012,09,20,07,35,9.30
2012,09,20,07,36,9.30
2012,09,20,07,37,9.30
2012,09,20,07,38,9.30
2012,09,20,07,39,9.30
2012,09,20,07,40,9.30
2012,09,20,07,41,9.30
2012,09,20,07,42,9.30
2012,09,20,07,43,9.40
2012,09,20,07,44,9.40
2012,09,20,07,45,9.40
2012,09,20,07,46,9.40
2012,09,20,07,47,9.40
2012,09,20,07,48,9.50
2012,09,20,07,49,9.50
2012,09,20,07,50,9.60
2012,09,20,07,51,9.60
2012,09,20,07,52,9.60
2012,09,20,07,53,9.60
2012,09,20,07,54,9.60
2012,09,20,07,55,9.60
2012,09,20,07,56,9.60
2012,09,20,07,57,9.70
2012,09,20,07,58,9.70
2012,09,20,07,59,9.70
2012,09,20,08,00,9.70
2012,09,20,08,01,9.70
2012,09,20,08,02,9.70
2012,09,20,08,03,9.80
2012,09,20,08,04,9.80
2012,09,20,08,05,9.80
2012,09,20,08,06,9.80
2012,09,20,08,07,9.80
2012,09,20,08,08,9.80
2012,09,20,08,09,9.80
2012,09,20,08,10,9.80
2012,09,20,08,11,9.80
2012,09,20,08,12,9.80
2012,09,20,08,13,9.90
2012,09,20,08,14,9.90
2012,09,20,08,15,9.90
2012,09,20,08,16,9.90
2012,09,20,08,17,9.90
2012,09,20,08,18,9.90
2012,09,20,08,19,9.90
2012,09,20,08,20,10.00
2012,09,20,08,21,10.00
2012,09,20,08,22,10.00
2012,09,20,08,23,10.10
2012,09,20,08,24,10.10
2012,09,20,08,25,10.10
2012,09,20,08,26,10.20
2012,09,20,08,27,10.20
2012,09,20,08,28,10.20
2012,09,20,08,29,10.20
2012,09,20,08,30,10.30
2012,09,20,08,31,10.30
2012,09,20,08,32,10.30
2012,09,20,08,33,10.30
2012,09,20,08,34,10.30
2012,09,20,08,35,10.40
2012,09,20,08,36,10.40
2012,09,20,08,37,10.40
2012,09,20,08,38,10.40
2012,09,20,08,39,10.50
2012,09,20,08,40,10.50
2012,09,20,08,41,10.60
2012,09,20,08,42,10.60
2012,09,20,08,43,10.60
2012,09,20,08,44,10.70
2012,09,20,08,45,10.70
2012,09,20,08,46,10.70
2012,09,20,08,47,10.80
2012,09,20,08,48,10.80
2012,09,20,08,49,10.90
2012,09,20,08,50,10.90
2012,09,20,08,51,11.00
2012,09,20,08,52,11.00
2012,09,20,08,53,11.10
2012,09,20,08,54,11.10
2012,09,20,08,55,11.10
2012,09,20,08,56,11.20
2012,09,20,08,57,11.20
2012,09,20,08,58,11.20
2012,09,20,08,59,11.30
2012,09,20,09,00,11.30
2012,09,20,09,01,11.40
2012,09,20,09,02,11.40
2012,09,20,09,03,11.50
2012,09,20,09,04,11.50
2012,09,20,09,05,11.60
2012,09,20,09,06,11.60
2012,09,20,09,07,11.70
2012,09,20,09,08,11.80
2012,09,20,09,09,11.80
2012,09,20,09,10,11.90
2012,09,20,09,11,11.90
2012,09,20,09,12,12.00
2012,09,20,09,13,12.00
2012,09,20,09,14,12.10
2012,09,20,09,15,12.10
2012,09,20,09,16,12.20
2012,09,20,09,17,12.30
2012,09,20,09,18,12.40
2012,09,20,09,19,12.40
2012,09,20,09,20,12.50
2012,09,20,09,21,12.60
2012,09,20,09,22,12.70
2012,09,20,09,23,12.80
2012,09,20,09,24,12.90
2012,09,20,09,25,13.00
2012,09,20,09,26,13.10
2012,09,20,09,27,13.10
2012,09,20,09,28,13.20
2012,09,20,09,29,13.20
2012,09,20,09,30,13.30
2012,09,20,09,31,13.30
2012,09,20,09,32,13.40
2012,09,20,09,33,13.50
2012,09,20,09,34,13.60
2012,09,20,09,35,13.60
2012,09,20,09,36,13.70
2012,09,20,09,37,13.70
2012,09,20,09,38,13.80
2012,09,20,09,39,13.90
2012,09,20,09,40,13.90
2012,09,20,09,41,14.00
2012,09,20,09,42,14.00
2012,09,20,09,43,14.10
2012,09,20,09,44,14.10
2012,09,20,09,45,14.20
2012,09,20,09,46,14.30
2012,09,20,09,47,14.30
2012,09,20,09,48,14.40
2012,09,20,09,49,14.50
2012,09,20,09,50,14.60
2012,09,20,09,51,14.70
2012,09,20,09,52,14.90
2012,09,20,09,53,15.00
2012,09,20,09,54,15.00
2012,09,20,09,55,15.10
2012,09,20,09,56,15.30
2012,09,20,09,57,15.40
2012,09,20,09,58,15.60
2012,09,20,09,59,15.70
2012,09,20,10,00,15.80
2012,09,20,10,01,16.00
2012,09,20,10,02,16.10
2012,09,20,10,03,16.20
2012,09,20,10,04,16.30
2012,09,20,10,05,16.40
2012,09,20,10,06,16.50
2012,09,20,10,07,16.60
2012,09,20,10,08,16.70
2012,09,20,10,09,16.80
2012,09,20,10,10,16.90
2012,09,20,10,11,17.00
2012,09,20,10,12,17.10
2012,09,20,10,13,17.20
2012,09,20,10,14,17.30
2012,09,20,10,15,17.40
2012,09,20,10,16,17.50
2012,09,20,10,17,17.50
2012,09,20,10,18,17.70
2012,09,20,10,19,17.80
2012,09,20,10,20,17.90
2012,09,20,10,21,18.00
2012,09,20,10,22,18.20
2012,09,20,10,23,18.30
2012,09,20,10,24,18.40
2012,09,20,10,25,18.50
2012,09,20,10,26,18.60
2012,09,20,10,27,18.70
2012,09,20,10,28,18.80
2012,09,20,10,29,18.80
2012,09,20,10,30,18.90
2012,09,20,10,31,19.10
2012,09,20,10,32,19.20
2012,09,20,10,33,19.20
2012,09,20,10,34,19.30
2012,09,20,10,35,19.40
2012,09,20,10,36,19.50
2012,09,20,10,37,19.60
2012,09,20,10,38,19.70
2012,09,20,10,39,19.70
2012,09,20,10,40,19.70
2012,09,20,10,41,19.80
2012,09,20,10,42,19.80
2012,09,20,10,43,19.90
2012,09,20,10,44,19.90
2012,09,20,10,45,20.00
2012,09,20,10,46,20.10
2012,09,20,10,47,20.20
2012,09,20,10,48,20.30
2012,09,20,10,49,20.30
2012,09,20,10,50,20.40
2012,09,20,10,51,20.50
2012,09,20,10,52,20.60
2012,09,20,10,53,20.60
2012,09,20,10,54,20.60
2012,09,20,10,55,20.70
2012,09,20,10,56,20.80
2012,09,20,10,57,20.80
2012,09,20,10,58,20.90
2012,09,20,10,59,20.90
2012,09,20,11,00,21.00
2012,09,20,11,01,21.00
2012,09,20,11,02,21.00
2012,09,20,11,03,21.10
2012,09,20,11,04,21.10
2012,09,20,11,05,21.20
2012,09,20,11,06,21.20
2012,09,20,11,07,21.30
2012,09,20,11,08,21.40
2012,09,20,11,09,21.50
2012,09,20,11,10,21.60
2012,09,20,11,11,21.70
2012,09,20,11,12,21.80
2012,09,20,11,13,21.80
2012,09,20,11,14,21.90
2012,09,20,11,15,21.90
2012,09,20,11,16,22.00
2012,09,20,11,17,22.00
2012,09,20,11,18,22.00
2012,09,20,11,19,22.10
2012,09,20,11,20,22.10
2012,09,20,11,21,22.20
2012,09,20,11,22,22.20
2012,09,20,11,23,22.30
2012,09,20,11,24,22.30
2012,09,20,11,25,22.40
2012,09,20,11,26,22.40
2012,09,20,11,27,22.50
2012,09,20,11,28,22.70
2012,09,20,11,29,22.80
2012,09,20,11,30,22.90
2012,09,20,11,31,23.00
2012,09,20,11,32,23.10
2012,09,20,11,33,23.10
2012,09,20,11,34,23.20
2012,09,20,11,35,23.20
2012,09,20,11,36,23.30
2012,09,20,11,37,23.40
2012,09,20,11,38,23.40
2012,09,20,11,39,23.50
2012,09,20,11,40,23.60
2012,09,20,11,41,23.70
2012,09,20,11,42,23.70
2012,09,20,11,43,23.80
2012,09,20,11,44,23.90
2012,09,20,11,45,24.00
2012,09,20,11,46,24.20
2012,09,20,11,47,24.20
2012,09,20,11,48,24.20
2012,09,20,11,49,24.20
2012,09,20,11,50,24.20
2012,09,20,11,51,24.10
2012,09,20,11,52,24.10
2012,09,20,11,53,24.10
2012,09,20,11,54,24.10
2012,09,20,11,55,24.10
2012,09,20,11,56,24.20
2012,09,20,11,57,24.30
2012,09,20,11,58,24.30
2012,09,20,11,59,24.40
2012,09,20,12,00,24.40
2012,09,20,12,01,24.50
2012,09,20,12,02,24.50
2012,09,20,12,03,24.60
2012,09,20,12,04,24.60
2012,09,20,12,05,24.60
2012,09,20,12,06,24.60
2012,09,20,12,07,24.60
2012,09,20,12,08,24.60
2012,09,20,12,09,24.50
2012,09,20,12,10,24.50
2012,09,20,12,11,24.50
2012,09,20,12,12,24.40
2012,09,20,12,13,24.40
2012,09,20,12,14,24.30
2012,09,20,12,15,24.30
2012,09,20,12,16,24.20
2012,09,20,12,17,24.20
2012,09,20,12,18,24.20
2012,09,20,12,19,24.20
2012,09,20,12,20,24.10
2012,09,20,12,21,24.10
2012,09,20,12,22,24.10
2012,09,20,12,23,24.10
2012,09,20,12,24,24.20
2012,09,20,12,25,24.20
2012,09,20,12,26,24.30
2012,09,20,12,27,24.30
2012,09,20,12,28,24.40
2012,09,20,12,29,24.50
2012,09,20,12,30,24.60
2012,09,20,12,31,24.70
2012,09,20,12,32,24.80
2012,09,20,12,33,24.90
2012,09,20,12,34,24.90
2012,09,20,12,35,24.90
2012,09,20,12,36,25.00
2012,09,20,12,37,25.00
2012,09,20,12,38,25.10
2012,09,20,12,39,25.10
2012,09,20,12,40,25.20
2012,09,20,12,41,25.20
2012,09,20,12,42,25.20
2012,09,20,12,43,25.20
2012,09,20,12,44,25.10
2012,09,20,12,45,25.10
2012,09,20,12,46,25.00
2012,09,20,12,47,25.00
2012,09,20,12,48,24.90
2012,09,20,12,49,24.90
2012,09,20,12,50,25.00
2012,09,20,12,51,25.10
2012,09,20,12,52,25.10
2012,09,20,12,53,25.20
2012,09,20,12,54,25.30
2012,09,20,12,55,25.50
2012,09,20,12,56,25.60
2012,09,20,12,57,25.80
2012,09,20,12,58,25.90
2012,09,20,12,59,25.90
2012,09,20,13,00,25.90
2012,09,20,13,01,26.00
2012,09,20,13,02,26.00
2012,09,20,13,03,26.10
2012,09,20,13,04,26.10
2012,09,20,13,05,26.10
2012,09,20,13,06,26.20
2012,09,20,13,07,26.30
2012,09,20,13,08,26.40
2012,09,20,13,09,26.50
2012,09,20,13,10,26.60
2012,09,20,13,11,26.70
2012,09,20,13,12,26.80
2012,09,20,13,13,26.90
2012,09,20,13,14,27.00
2012,09,20,13,15,27.10
2012,09,20,13,16,27.20
2012,09,20,13,17,27.20
2012,09,20,13,18,27.30
2012,09,20,13,19,27.30
2012,09,20,13,20,27.30
2012,09,20,13,21,27.30
2012,09,20,13,22,27.30
2012,09,20,13,23,27.40
2012,09,20,13,24,27.40
2012,09,20,13,25,27.40
2012,09,20,13,26,27.50
2012,09,20,13,27,27.50
2012,09,20,13,28,27.50
2012,09,20,13,29,27.50
2012,09,20,13,30,27.50
2012,09,20,13,31,27.50
2012,09,20,13,32,27.50
2012,09,20,13,33,27.30
2012,09,20,13,34,27.20
2012,09,20,13,35,27.10
2012,09,20,13,36,27.00
2012,09,20,13,37,27.00
2012,09,20,13,38,27.00
2012,09,20,13,39,27.10
2012,09,20,13,40,27.10
2012,09,20,13,41,27.30
2012,09,20,13,42,27.30
2012,09,20,13,43,27.40
2012,09,20,13,44,27.40
2012,09,20,13,45,27.50
2012,09,20,13,46,27.50
2012,09,20,13,47,27.50
2012,09,20,13,48,27.50
2012,09,20,13,49,27.40
2012,09,20,13,50,27.30
2012,09,20,13,51,27.30
2012,09,20,13,52,27.10
2012,09,20,13,53,26.90
2012,09,20,13,54,26.80
2012,09,20,13,55,26.70
2012,09,20,13,56,26.50
2012,09,20,13,57,26.30
2012,09,20,13,58,26.20
2012,09,20,13,59,26.00
2012,09,20,14,00,25.90
2012,09,20,14,01,25.80
2012,09,20,14,02,25.70
2012,09,20,14,03,25.70
2012,09,20,14,04,25.70
2012,09,20,14,05,25.60
2012,09,20,14,06,25.70
2012,09,20,14,07,25.70
2012,09,20,14,08,25.70
2012,09,20,14,09,25.70
2012,09,20,14,10,25.80
2012,09,20,14,11,25.70
2012,09,20,14,12,25.70
2012,09,20,14,13,25.70
2012,09,20,14,14,25.60
2012,09,20,14,15,25.60
2012,09,20,14,16,25.50
2012,09,20,14,17,25.50
2012,09,20,14,18,25.30
2012,09,20,14,19,25.20
2012,09,20,14,20,25.10
2012,09,20,14,21,25.10
2012,09,20,14,22,25.10
2012,09,20,14,23,25.00
2012,09,20,14,24,25.00
2012,09,20,14,25,24.90
2012,09,20,14,26,24.90
2012,09,20,14,27,24.90
2012,09,20,14,28,25.00
2012,09,20,14,29,25.00
2012,09,20,14,30,25.10
2012,09,20,14,31,25.10
2012,09,20,14,32,25.10
2012,09,20,14,33,25.00
2012,09,20,14,34,25.00
2012,09,20,14,35,24.90
2012,09,20,14,36,24.80
2012,09,20,14,37,24.80
2012,09,20,14,38,24.80
2012,09,20,14,39,24.90
2012,09,20,14,40,25.00
2012,09,20,14,41,25.00
2012,09,20,14,42,25.10
2012,09,20,14,43,25.00
2012,09,20,14,44,25.00
2012,09,20,14,45,25.00
2012,09,20,14,46,25.10
2012,09,20,14,47,25.10
2012,09,20,14,48,25.10
2012,09,20,14,49,25.20
2012,09,20,14,50,25.10
2012,09,20,14,51,25.10
2012,09,20,14,52,25.10
2012,09,20,14,53,25.20
2012,09,20,14,54,25.20
2012,09,20,14,55,25.30
2012,09,20,14,56,25.30
2012,09,20,14,57,25.40
2012,09,20,14,58,25.50
2012,09,20,14,59,25.60
2012,09,20,15,00,25.70
2012,09,20,15,01,25.70
2012,09,20,15,02,25.70
2012,09,20,15,03,25.60
2012,09,20,15,04,25.50
2012,09,20,15,05,25.50
2012,09,20,15,06,25.40
2012,09,20,15,07,25.40
2012,09,20,15,08,25.30
2012,09,20,15,09,25.40
2012,09,20,15,10,25.40
2012,09,20,15,11,25.40
2012,09,20,15,12,25.50
2012,09,20,15,13,25.50
2012,09,20,15,14,25.50
2012,09,20,15,15,25.50
2012,09,20,15,16,25.50
2012,09,20,15,17,25.50
2012,09,20,15,18,25.50
2012,09,20,15,19,25.40
2012,09,20,15,20,25.40
2012,09,20,15,21,25.40
2012,09,20,15,22,25.40
2012,09,20,15,23,25.40
2012,09,20,15,24,25.40
2012,09,20,15,25,25.40
2012,09,20,15,26,25.30
2012,09,20,15,27,25.30
2012,09,20,15,28,25.20
2012,09,20,15,29,25.20
2012,09,20,15,30,25.20
2012,09,20,15,31,25.20
2012,09,20,15,32,25.20
2012,09,20,15,33,25.20
2012,09,20,15,34,25.20
2012,09,20,15,35,25.40
2012,09,20,15,36,25.50
2012,09,20,15,37,25.60
2012,09,20,15,38,25.60
2012,09,20,15,39,25.50
2012,09,20,15,40,25.40
2012,09,20,15,41,25.40
2012,09,20,15,42,25.50
2012,09,20,15,43,25.50
2012,09,20,15,44,25.60
2012,09,20,15,45,25.70
2012,09,20,15,46,25.70
2012,09,20,15,47,25.60
2012,09,20,15,48,25.50
2012,09,20,15,49,25.50
2012,09,20,15,50,25.50
2012,09,20,15,51,25.50
2012,09,20,15,52,25.50
2012,09,20,15,53,25.50
2012,09,20,15,54,25.50
2012,09,20,15,55,25.50
2012,09,20,15,56,25.40
2012,09,20,15,57,25.30
2012,09,20,15,58,25.30
2012,09,20,15,59,25.20
2012,09,20,16,00,25.20
2012,09,20,16,01,25.10
2012,09,20,16,02,25.00
2012,09,20,16,03,25.00
2012,09,20,16,04,25.00
2012,09,20,16,05,24.90
2012,09,20,16,06,24.80
2012,09,20,16,07,24.80
2012,09,20,16,08,24.70
2012,09,20,16,09,24.70
2012,09,20,16,10,24.70
2012,09,20,16,11,24.70
2012,09,20,16,12,24.70
2012,09,20,16,13,24.80
2012,09,20,16,14,24.80
2012,09,20,16,15,24.80
2012,09,20,16,16,24.90
2012,09,20,16,17,24.90
2012,09,20,16,18,24.90
2012,09,20,16,19,24.90
2012,09,20,16,20,24.90
2012,09,20,16,21,24.90
2012,09,20,16,22,24.90
2012,09,20,16,23,24.90
2012,09,20,16,24,24.90
2012,09,20,16,25,25.00
2012,09,20,16,26,25.10
2012,09,20,16,27,25.10
2012,09,20,16,28,25.20
2012,09,20,16,29,25.30
2012,09,20,16,30,25.30
2012,09,20,16,31,25.40
2012,09,20,16,32,25.40
2012,09,20,16,33,25.40
2012,09,20,16,34,25.40
2012,09,20,16,35,25.40
2012,09,20,16,36,25.40
2012,09,20,16,37,25.40
2012,09,20,16,38,25.30
2012,09,20,16,39,25.20
2012,09,20,16,40,25.10
2012,09,20,16,41,25.00
2012,09,20,16,42,24.90
2012,09,20,16,43,24.90
2012,09,20,16,44,24.90
2012,09,20,16,45,24.90
2012,09,20,16,46,24.80
2012,09,20,16,47,24.80
2012,09,20,16,48,24.80
2012,09,20,16,49,24.80
2012,09,20,16,50,24.80
2012,09,20,16,51,24.80
2012,09,20,16,52,24.80
2012,09,20,16,53,24.80
2012,09,20,16,54,24.90
2012,09,20,16,55,24.90
2012,09,20,16,56,24.90
2012,09,20,16,57,24.90
2012,09,20,16,58,24.80
2012,09,20,16,59,24.80
2012,09,20,17,00,24.70
2012,09,20,17,01,24.70
2012,09,20,17,02,24.70
2012,09,20,17,03,24.70
2012,09,20,17,04,24.60
2012,09,20,17,05,24.60
2012,09,20,17,06,24.60
2012,09,20,17,07,24.60
2012,09,20,17,08,24.60
2012,09,20,17,09,24.60
2012,09,20,17,10,24.60
2012,09,20,17,11,24.60
2012,09,20,17,12,24.60
2012,09,20,17,13,24.70
2012,09,20,17,14,24.70
2012,09,20,17,15,24.70
2012,09,20,17,16,24.70
2012,09,20,17,17,24.70
2012,09,20,17,18,24.80
2012,09,20,17,19,24.80
2012,09,20,17,20,24.80
2012,09,20,17,21,24.70
2012,09,20,17,22,24.70
2012,09,20,17,23,24.70
2012,09,20,17,24,24.60
2012,09,20,17,25,24.60
2012,09,20,17,26,24.60
2012,09,20,17,27,24.60
2012,09,20,17,28,24.60
2012,09,20,17,29,24.60
2012,09,20,17,30,24.60
2012,09,20,17,31,24.60